EW4483 Weather Reports


Display with metric or nautical units.
time (UTC)temp
F
wind
direction
speed
MPH
gust
MPH
rain 1hr
in
rain 24hr
in
rain mn
in
humidity
%
barometer
mb
20200705110815 78 266 1.0 3.0 0.01 0.06 0.03 93 1007.7
20200705110315 78 250 2.0 6.0 0.00 0.06 0.02 93 1007.7
20200705105816 78 212 2.0 3.0 0.00 0.06 0.02 93 1007.7
20200705105315 78 214 0.0 3.0 0.00 0.06 0.02 93 1007.6
20200705104816 78 214 1.0 2.0 0.00 0.06 0.02 93 1007.6
20200705104315 78 214 0.0 1.0 0.00 0.06 0.02 93 1007.6
20200705103817 78 214 1.0 2.0 0.00 0.06 0.02 93 1007.6
20200705103315 78 214 0.0 2.0 0.00 0.06 0.02 93 1007.7
20200705102815 78 214 0.0 3.0 0.00 0.06 0.02 92 1007.6
20200705102318 78 214 1.0 2.0 0.00 0.06 0.02 92 1007.6
20200705101815 78 214 1.0 2.0 0.00 0.06 0.02 92 1007.6
20200705101316 78 214 1.0 3.0 0.00 0.06 0.02 92 1007.5
20200705100816 78 214 1.0 3.0 0.00 0.06 0.02 92 1007.5
20200705100315 78 237 1.0 3.0 0.00 0.06 0.02 92 1007.5
20200705095815 78 237 0.0 1.0 0.00 0.06 0.02 92 1007.4
20200705095315 78 237 0.0 1.0 0.00 0.06 0.02 92 1007.5
20200705094815 78 237 0.0 0.0 0.00 0.06 0.02 92 1007.5
20200705094315 78 237 1.0 2.0 0.00 0.06 0.02 92 1007.5
20200705093815 78 237 2.0 3.0 0.00 0.06 0.02 92 1007.4
20200705093317 78 237 1.0 3.0 0.00 0.06 0.02 92 1007.4
20200705092816 78 237 2.0 3.0 0.00 0.06 0.02 92 1007.4
20200705092315 78 242 1.0 3.0 0.00 0.06 0.02 92 1007.3
20200705091815 78 275 1.0 3.0 0.00 0.06 0.02 92 1007.2
20200705091315 78 242 3.0 5.0 0.00 0.06 0.02 92 1007.3
20200705090816 78 254 3.0 6.0 0.00 0.06 0.02 92 1007.2
20200705090316 78 253 2.0 3.0 0.00 0.06 0.02 92 1007.2
20200705085816 78 238 4.0 6.0 0.00 0.06 0.02 92 1007.1
20200705085316 78 258 3.0 6.0 0.00 0.06 0.02 92 1007.1
20200705084815 78 243 4.0 7.0 0.00 0.06 0.02 92 1007.0
20200705084317 78 245 2.0 5.0 0.00 0.06 0.02 92 1007.0
20200705083820 78 252 3.0 6.0 0.00 0.06 0.02 91 1007.0
20200705083315 78 263 2.0 5.0 0.00 0.06 0.02 91 1007.1
20200705082815 78 252 6.0 8.0 0.00 0.06 0.02 91 1007.0
20200705082315 78 244 4.0 7.0 0.00 0.07 0.02 91 1007.0
20200705081815 78 238 5.0 7.0 0.00 0.07 0.02 91 1006.9
20200705081315 78 217 5.0 9.0 0.00 0.07 0.02 91 1006.9
20200705080815 78 247 3.0 5.0 0.00 0.07 0.02 91 1006.9
20200705080315 78 250 5.0 12.0 0.00 0.07 0.02 91 1007.0
20200705075815 78 222 6.0 12.0 0.00 0.07 0.02 91 1007.1
20200705075316 78 225 5.0 9.0 0.00 0.07 0.02 91 1006.9
20200705074816 78 240 5.0 8.0 0.00 0.07 0.02 91 1006.9
20200705074316 78 233 5.0 9.0 0.00 0.07 0.02 91 1006.9
20200705073815 78 231 6.0 9.0 0.00 0.07 0.02 91 1006.9
20200705073317 78 237 5.0 8.0 0.00 0.07 0.02 91 1006.9
20200705072815 78 229 6.0 12.0 0.00 0.07 0.02 91 1007.0
20200705072315 78 229 5.0 9.0 0.00 0.07 0.02 90 1007.0
20200705071815 78 235 5.0 10.0 0.00 0.07 0.02 90 1007.0
20200705071315 78 239 6.0 12.0 0.00 0.07 0.02 90 1007.0
20200705070816 78 239 5.0 8.0 0.00 0.07 0.02 89 1007.0
20200705070317 78 220 6.0 12.0 0.00 0.07 0.02 89 1007.0
20200705065815 78 233 9.0 14.0 0.00 0.07 0.02 89 1007.0
20200705065316 78 230 5.0 10.0 0.00 0.07 0.02 89 1007.0
20200705064816 78 216 5.0 12.0 0.00 0.07 0.02 89 1006.9
20200705064315 78 231 6.0 10.0 0.00 0.07 0.02 88 1006.9
20200705063815 78 239 9.0 12.0 0.00 0.07 0.02 88 1006.9
20200705063314 78 234 9.0 14.0 0.00 0.07 0.02 88 1006.9
20200705062815 78 224 8.0 13.0 0.00 0.07 0.02 88 1006.9
20200705062315 78 242 7.0 14.0 0.00 0.07 0.02 88 1007.0
20200705061815 78 227 9.0 16.0 0.00 0.07 0.02 87 1007.0
20200705061315 78 238 7.0 12.0 0.00 0.07 0.02 88 1007.0
20200705060815 78 223 8.0 13.0 0.00 0.07 0.02 87 1007.0
20200705060316 79 228 7.0 13.0 0.00 0.07 0.02 87 1007.0
20200705055815 79 226 7.0 10.0 0.00 0.07 0.02 86 1007.0
20200705055316 79 223 9.0 14.0 0.00 0.07 0.02 86 1007.0
20200705054815 79 218 7.0 15.0 0.00 0.07 0.02 86 1006.9
20200705054314 79 225 9.0 20.0 0.00 0.07 0.02 86 1006.9
20200705053815 79 217 11.0 17.0 0.00 0.07 0.02 86 1006.9
20200705053318 79 218 10.0 14.0 0.00 0.07 0.02 87 1006.9
20200705052817 78 217 10.0 14.0 0.00 0.07 0.02 88 1006.8
20200705052316 78 210 10.0 20.0 0.00 0.07 0.02 88 1006.8
20200705051816 78 219 10.0 14.0 0.00 0.07 0.02 89 1006.8
20200705051315 78 219 9.0 16.0 0.00 0.07 0.02 89 1006.7
20200705050815 78 227 9.0 20.0 0.00 0.09 0.02 89 1006.7
20200705050315 78 215 10.0 15.0 0.00 0.12 0.02 89 1006.7
20200705045815 78 207 7.0 12.0 0.00 0.14 0.02 90 1006.7
20200705045315 78 214 10.0 18.0 0.00 0.16 0.02 90 1006.8
20200705044814 78 213 11.0 17.0 0.01 0.17 0.02 90 1006.8
20200705044315 77 215 7.0 13.0 0.01 0.18 0.02 91 1006.8
20200705043815 77 204 10.0 16.0 0.01 0.20 0.02 91 1006.9
20200705043315 76 226 6.0 13.0 0.01 0.20 0.02 92 1007.0
20200705042815 76 211 8.0 13.0 0.01 0.21 0.02 92 1006.9
20200705042315 76 212 7.0 13.0 0.01 0.22 0.02 93 1007.0
20200705041815 76 222 7.0 12.0 0.01 0.23 0.02 94 1006.9
20200705041315 76 212 8.0 20.0 0.01 0.23 0.02 94 1007.0
20200705040816 76 218 7.0 10.0 0.01 0.24 0.02 94 1006.9
20200705040316 76 226 6.0 13.0 0.01 0.24 0.02 94 1006.9
20200705035815 76 248 7.0 10.0 0.01 0.25 0.02 94 1007.0
20200705035314 76 244 5.0 12.0 0.01 0.25 0.02 94 1007.0
20200705034814 76 214 6.0 8.0 0.00 0.24 0.02 94 1006.9
20200705034315 76 222 8.0 12.0 0.00 0.24 0.02 94 1006.9
20200705033817 76 214 8.0 12.0 0.00 0.25 0.02 94 1006.9
20200705033315 76 213 5.0 10.0 0.00 0.25 0.02 94 1006.7
20200705032815 77 194 5.0 10.0 0.00 0.25 0.02 94 1006.7
20200705032315 77 205 5.0 12.0 0.00 0.25 0.02 94 1006.7
20200705031815 77 213 7.0 12.0 0.00 0.25 0.02 93 1006.8
20200705031314 77 206 5.0 8.0 0.00 0.25 0.02 93 1006.7
20200705030814 77 211 6.0 12.0 0.00 0.26 0.02 93 1006.8
20200705030315 78 216 6.0 13.0 0.00 0.26 0.02 93 1006.7
20200705025815 78 192 4.0 8.0 0.00 0.26 0.02 92 1006.7
20200705025314 78 209 5.0 9.0 0.00 0.26 0.02 92 1006.7
20200705024817 78 208 3.0 7.0 0.00 0.26 0.02 92 1006.7
20200705024316 78 216 3.0 5.0 0.00 0.26 0.02 91 1006.6
20200705023815 78 216 2.0 3.0 0.00 0.26 0.02 91 1006.6
20200705023314 78 216 3.0 7.0 0.00 0.26 0.02 91 1006.6
20200705022815 78 221 3.0 7.0 0.01 0.26 0.02 91 1006.6
20200705022314 77 213 2.0 6.0 0.01 0.26 0.02 91 1006.7
20200705021816 78 214 4.0 6.0 0.01 0.26 0.02 91 1006.6
20200705021315 78 210 2.0 3.0 0.01 0.26 0.02 92 1006.3
20200705020818 77 191 1.0 3.0 0.01 0.26 0.02 92 1006.2
20200705020315 77 202 2.0 5.0 0.01 0.26 0.02 92 1006.2
20200705015814 77 211 4.0 6.0 0.01 0.26 0.02 92 1006.3
20200705015317 77 215 2.0 5.0 0.01 0.26 0.02 92 1006.3
20200705014814 77 190 2.0 3.0 0.01 0.26 0.02 93 1006.3
20200705014315 77 211 1.0 3.0 0.01 0.26 0.02 93 1006.4
20200705013815 77 215 1.0 3.0 0.01 0.26 0.02 93 1006.3
20200705013315 77 201 1.0 3.0 0.01 0.26 0.02 93 1006.2
20200705012814 77 201 2.0 6.0 0.00 0.25 0.01 92 1006.3
20200705012315 77 229 4.0 6.0 0.00 0.25 0.01 92 1006.5
20200705011815 77 242 3.0 6.0 0.00 0.25 0.01 92 1006.6
20200705011315 77 230 3.0 6.0 0.00 0.25 0.01 92 1006.6
20200705010815 77 240 2.0 5.0 0.00 0.25 0.01 93 1006.7
20200705010315 77 219 4.0 6.0 0.00 0.25 0.01 92 1006.7
20200705005815 77 235 5.0 6.0 0.00 0.25 0.01 92 1006.7
20200705005314 77 238 4.0 7.0 0.00 0.25 0.01 92 1006.6
20200705004815 77 240 6.0 8.0 0.00 0.25 0.01 92 1006.5
20200705004315 77 226 5.0 6.0 0.01 0.25 0.01 93 1006.4
20200705003815 76 223 3.0 6.0 0.01 0.25 0.01 93 1006.3
20200705003314 76 242 3.0 5.0 0.01 0.25 0.01 94 1006.1
20200705002815 76 289 2.0 6.0 0.01 0.25 0.01 93 1006.0
20200705002315 76 306 2.0 3.0 0.01 0.25 0.01 93 1006.0
20200705001814 76 267 3.0 5.0 0.01 0.25 0.01 93 1006.0
20200705001315 76 272 3.0 5.0 0.01 0.25 0.01 93 1006.2
20200705000817 76 262 2.0 3.0 0.01 0.25 0.01 93 1006.1
20200705000315 76 244 4.0 5.0 0.01 0.25 0.01 93 1006.3
20200704235835 76 258 5.0 9.0 0.01 0.25 0.01 93 1006.3
20200704235346 77 259 5.0 6.0 0.01 0.25 0.01 93 1006.4
20200704234814 77 288 5.0 6.0 0.01 0.25 0.01 93 1006.5
20200704234316 77 233 5.0 8.0 0.00 0.24 0.00 92 1006.4
20200704233817 77 214 3.0 6.0 0.00 0.24 0.00 92 1006.4
20200704233322 77 207 5.0 7.0 0.00 0.24 0.00 92 1006.4
20200704232815 78 222 3.0 7.0 0.00 0.24 0.00 92 1006.4
20200704232315 78 206 6.0 9.0 0.00 0.24 0.00 91 1006.6
20200704231814 79 210 3.0 8.0 0.00 0.24 0.00 92 1006.7
20200704231314 79 228 2.0 5.0 0.00 0.24 0.00 93 1006.6
20200704230814 78 323 1.0 2.0 0.00 0.24 0.00 94 1006.5
20200704230315 78 325 0.0 3.0 0.00 0.24 0.00 94 1006.5
20200704225818 78 326 1.0 3.0 0.00 0.24 0.00 94 1006.4
20200704225315 78 325 2.0 3.0 0.00 0.24 0.00 94 1006.4
20200704224815 78 331 1.0 3.0 0.00 0.24 0.00 95 1006.4
20200704224314 77 330 2.0 3.0 0.00 0.24 0.00 95 1006.3
20200704223816 77 321 3.0 5.0 0.00 0.24 0.00 95 1006.2
20200704223314 77 334 3.0 5.0 0.00 0.24 0.00 95 1006.2
20200704222816 77 330 2.0 3.0 0.00 0.24 0.00 96 1006.2
20200704222315 77 330 2.0 3.0 0.00 0.24 0.00 96 1006.0
20200704221815 76 331 2.0 3.0 0.00 0.24 0.00 96 1005.9
20200704221314 76 333 2.0 5.0 0.00 0.24 0.00 96 1005.9
20200704220815 76 329 2.0 5.0 0.00 0.24 0.00 97 1005.7
20200704220314 76 339 3.0 5.0 0.00 0.24 0.00 97 1005.8
20200704215815 76 337 3.0 5.0 0.00 0.24 0.00 97 1005.7
20200704215314 75 333 2.0 5.0 0.00 0.24 0.00 97 1005.6
20200704214815 75 315 2.0 3.0 0.00 0.24 0.00 97 1005.7
20200704214316 75 269 1.0 3.0 0.00 0.24 0.00 97 1005.6
20200704213815 75 292 1.0 2.0 0.00 0.24 0.00 97 1005.4
20200704213315 75 287 1.0 2.0 0.00 0.24 0.00 97 1005.4
20200704212814 75 294 1.0 2.0 0.00 0.24 0.00 97 1005.4
20200704212314 75 291 1.0 2.0 0.00 0.24 0.00 97 1005.4
20200704211814 74 301 2.0 3.0 0.00 0.24 0.00 97 1005.6
20200704211314 74 313 1.0 3.0 0.00 0.24 0.00 97 1005.8
20200704210816 74 306 1.0 2.0 0.00 0.25 0.00 97 1005.6
20200704210316 74 304 1.0 2.0 0.00 0.25 0.00 97 1005.5
20200704205815 74 294 1.0 2.0 0.00 0.25 0.00 97 1005.4
20200704204818 74 300 1.0 2.0 0.00 0.26 0.00 97 1005.3
20200704204317 74 321 1.0 2.0 0.00 0.26 0.00 97 1005.3
20200704203814 74 322 1.0 3.0 0.00 0.27 0.00 97 1005.3
20200704203315 74 353 2.0 3.0 0.00 0.27 0.00 97 1005.3
20200704202814 74 320 1.0 3.0 0.00 0.27 0.00 97 1005.2
20200704202315 74 320 1.0 2.0 0.00 0.27 0.00 97 1005.2
20200704201815 74 318 1.0 2.0 0.00 0.28 0.00 97 1005.2
20200704201318 74 310 1.0 2.0 0.00 0.28 0.00 97 1005.2
20200704200818 74 335 1.0 2.0 0.00 0.28 0.00 97 1005.1
20200704200315 74 321 1.0 2.0 0.00 0.31 0.00 97 1005.1
20200704195815 74 307 1.0 3.0 0.00 0.32 0.00 97 1005.1
20200704195314 74 308 2.0 3.0 0.00 0.32 0.00 97 1005.2
20200704194815 74 284 2.0 3.0 0.00 0.32 0.00 97 1005.1
20200704194315 74 310 2.0 3.0 0.00 0.32 0.00 97 1005.1
20200704193815 74 297 3.0 6.0 0.00 0.32 0.00 97 1005.1
20200704193315 74 294 3.0 6.0 0.00 0.32 0.00 97 1005.1
20200704192815 74 296 3.0 6.0 0.00 0.32 0.00 97 1005.2
20200704192314 74 275 3.0 5.0 0.00 0.32 0.00 97 1005.2
20200704191814 74 287 4.0 7.0 0.00 0.32 0.00 97 1005.2
20200704191314 74 264 5.0 7.0 0.00 0.32 0.00 97 1005.1
20200704190816 74 283 5.0 9.0 0.00 0.34 0.00 97 1005.0
20200704190314 74 262 3.0 6.0 0.00 0.36 0.00 97 1005.0
20200704185815 74 280 5.0 8.0 0.00 0.38 0.00 97 1004.9
20200704185318 74 264 4.0 6.0 0.00 0.39 0.00 97 1005.0
20200704184814 74 261 5.0 8.0 0.00 0.42 0.00 97 1004.9
20200704184315 74 269 5.0 10.0 0.00 0.43 0.00 97 1004.9
20200704183815 75 241 6.0 10.0 0.00 0.47 0.00 97 1004.8
20200704183314 75 252 3.0 6.0 0.00 0.48 0.00 97 1004.8
20200704182814 75 276 3.0 5.0 0.00 0.49 0.00 97 1004.8
20200704182319 75 293 2.0 3.0 0.00 0.50 0.00 97 1004.7
20200704181814 75 295 1.0 3.0 0.00 0.50 0.00 97 1004.7
20200704181314 75 304 2.0 3.0 0.00 0.50 0.00 97 1004.7
20200704180817 75 291 2.0 3.0 0.00 0.51 0.00 97 1004.6
20200704180321 75 312 1.0 3.0 0.00 0.52 0.00 97 1004.6
20200704175814 75 287 1.0 2.0 0.00 0.54 0.00 97 1004.5
20200704175320 75 304 0.0 1.0 0.00 0.55 0.00 96 1004.4
20200704174814 75 302 0.0 1.0 0.00 0.59 0.00 97 1004.4
20200704174314 75 304 1.0 2.0 0.00 0.64 0.00 97 1004.4
20200704173815 75 273 0.0 2.0 0.00 0.66 0.00 97 1004.5
20200704173315 75 297 1.0 3.0 0.00 0.69 0.00 97 1004.6
20200704172818 75 292 2.0 5.0 0.00 0.69 0.00 96 1004.6
20200704172314 75 319 2.0 3.0 0.00 0.71 0.00 97 1004.6
20200704171814 75 310 2.0 3.0 0.00 0.72 0.00 97 1004.7
20200704171314 75 314 2.0 5.0 0.00 0.75 0.00 96 1004.7
20200704170815 76 306 3.0 6.0 0.00 0.79 0.00 96 1004.8
20200704170315 76 277 4.0 8.0 0.00 0.81 0.00 96 1004.8
20200704165815 75 284 5.0 9.0 0.00 0.83 0.00 96 1004.8
20200704165314 76 257 3.0 6.0 0.00 0.93 0.00 96 1004.7
20200704164814 76 275 5.0 8.0 0.00 0.97 0.00 96 1004.8
20200704164314 76 272 5.0 7.0 0.00 1.00 0.00 96 1004.7
20200704163814 76 286 4.0 7.0 0.00 1.06 0.00 96 1004.6
20200704163315 76 264 5.0 9.0 0.00 1.11 0.00 96 1004.5
20200704162815 76 247 6.0 9.0 0.00 1.17 0.00 96 1004.6
20200704162314 76 267 6.0 10.0 0.00 1.20 0.00 96 1004.5
20200704161814 76 254 5.0 10.0 0.00 1.24 0.00 96 1004.4
20200704161314 76 284 6.0 12.0 0.00 1.26 0.00 96 1004.5
20200704160814 76 304 4.0 7.0 0.00 1.28 0.00 96 1004.5
20200704160314 76 296 6.0 9.0 0.00 1.30 0.00 96 1004.5
20200704155814 76 279 6.0 9.0 0.00 1.33 0.00 96 1004.5
20200704155315 76 313 6.0 9.0 0.00 1.36 0.00 96 1004.5
20200704154814 76 254 5.0 7.0 0.00 1.39 0.00 96 1004.4
20200704154314 77 290 3.0 9.0 0.00 1.43 0.00 96 1004.3
20200704153814 76 268 6.0 9.0 0.00 1.47 0.00 96 1004.5
20200704153315 76 288 5.0 9.0 0.00 1.53 0.00 96 1004.6
20200704152830 76 295 5.0 9.0 0.00 1.57 0.00 96 1004.6
20200704152407 77 279 5.0 9.0 0.00 1.63 0.00 96 1004.6
20200704151814 77 285 5.0 8.0 0.00 1.67 0.00 96 1004.6
20200704151314 77 284 4.0 9.0 0.00 1.70 0.00 96 1004.7
20200704150816 77 262 4.0 8.0 0.00 1.72 0.00 96 1004.7
20200704150314 77 277 5.0 7.0 0.00 1.76 0.00 96 1004.7
20200704145814 77 275 5.0 10.0 0.00 1.79 1.78 96 1004.7
20200704145314 77 278 5.0 10.0 0.00 1.80 1.78 96 1004.8
20200704144814 77 297 4.0 8.0 0.00 1.85 1.78 96 1004.6
20200704144314 77 281 4.0 7.0 0.00 1.87 1.78 96 1004.7
20200704143823 77 277 3.0 5.0 0.00 1.87 1.78 96 1004.7
20200704143315 77 296 3.0 9.0 0.00 1.87 1.78 96 1004.7
20200704142815 77 275 4.0 7.0 0.00 1.87 1.78 96 1004.8
20200704142314 77 290 5.0 9.0 0.00 1.88 1.78 96 1004.8
20200704141823 77 260 5.0 8.0 0.00 1.89 1.78 96 1004.9
20200704141314 77 280 3.0 8.0 0.00 1.91 1.78 96 1004.9
20200704140814 77 262 5.0 8.0 0.00 1.91 1.78 96 1004.9
20200704140332 77 321 5.0 8.0 0.00 1.91 1.78 96 1004.9
20200704135814 77 288 5.0 8.0 0.00 1.93 1.78 96 1004.9
20200704135314 77 290 4.0 8.0 0.00 1.94 1.78 96 1005.0
20200704134814 77 293 6.0 10.0 0.00 1.94 1.78 96 1005.0
20200704134314 77 300 5.0 9.0 0.00 1.94 1.78 96 1005.0
20200704133815 77 291 6.0 9.0 0.01 1.97 1.78 96 1005.1
20200704133314 77 296 7.0 13.0 0.01 1.98 1.78 96 1005.1
20200704132814 77 277 6.0 12.0 0.02 1.99 1.78 96 1005.1
20200704132314 77 277 6.0 12.0 0.02 1.99 1.78 95 1005.0
20200704131814 77 285 9.0 15.0 0.03 2.00 1.78 95 1005.0
20200704131316 77 290 9.0 13.0 0.03 2.01 1.78 95 1005.0
20200704130814 77 286 9.0 13.0 0.03 2.02 1.78 95 1005.0
20200704130314 77 272 10.0 15.0 0.03 2.02 1.78 95 1005.0
20200704125814 77 298 13.0 20.0 0.03 2.06 1.78 95 1005.0
20200704125315 77 265 11.0 16.0 0.03 2.12 1.78 95 1004.9
20200704124814 77 274 10.0 17.0 0.03 2.18 1.78 95 1004.8
20200704124315 77 270 12.0 17.0 0.03 2.19 1.78 95 1004.8
20200704123818 77 274 9.0 16.0 0.02 2.19 1.77 95 1004.8
20200704123318 78 285 11.0 17.0 0.02 2.19 1.77 95 1004.8
20200704122814 78 261 12.0 18.0 0.02 2.19 1.76 95 1004.9
20200704122315 78 309 9.0 16.0 0.01 2.19 1.76 94 1004.6
20200704121815 78 286 10.0 16.0 0.00 2.18 1.75 94 1004.6
20200704121314 78 317 6.0 12.0 0.00 2.19 1.75 94 1004.6
20200704120815 78 268 9.0 17.0 0.00 2.19 1.75 94 1004.5
20200704120315 78 290 13.0 23.0 0.00 2.20 1.75 94 1004.5
20200704115815 78 247 10.0 24.0 0.00 2.24 1.75 94 1004.4
20200704115321 78 231 14.0 24.0 0.00 2.26 1.75 94 1004.3
20200704114815 78 230 13.0 21.0 0.00 2.28 1.75 94 1004.4
20200704114313 78 213 13.0 20.0 0.00 2.30 1.75 94 1004.4
20200704113813 78 225 11.0 23.0 0.00 2.31 1.75 94 1004.3
20200704113314 78 230 12.0 23.0 0.00 2.31 1.75 94 1004.3
20200704112815 78 232 12.0 20.0 0.00 2.32 1.75 94 1004.2
20200704112313 78 234 13.0 21.0 0.00 2.33 1.75 94 1004.2
20200704111814 79 231 15.0 23.0 0.00 2.34 1.75 94 1004.1
20200704111423 78 226 12.0 21.0 0.00 2.35 1.75 94 1004.0